Dewpoint
70 70 70 69 68 68 68 69 70 70 71 71 71 71 70 70 70 70 70 70 70 69
71 70 70 69 69 69 68 68 69 70 69 70 70 71 70 70 70 71 70 70 69 69
70 71 71 70 69 68 68 68 69 70 69 70 70 70 70 70 70 70 70 70 70 69
69 72 71 70 69 69 69 68 70 70 70 70 70 70 70 70 70 70 69 69 67 66
70 72 71 70 70 69 69 70 70 70 70 70 70 70 70 70 71 70 69 69 68 68
72 71 71 71 71 70 69 69 70 70 70 70 69 68 69 70 70 70 70 69 69 68
71 71 71 71 71 71 71 70 70 69 69 68 68 67 68 70 70 70 70 70 68 69
72 71 71 71 71 71 71 71 70 70 69 68 67 67 69 70 70 70 70 70 70 70
71 71 71 71 71 71 70 71 70 70 69 68 70 67 68 70 70 69 70 69 70 70
70 70 69 70 69 70 70 70 70 70 69 70 70 67 66 68 69 69 69 70 70 70
70 69 70 70 69 70 70 69 70 70 69 70 71 66 65 67 69 69 69 69 69 69
68 69 70 68 68 70 69 68 68 68 68 70 70 64 64 65 69 68 68 69 70 70
67 68 68 68 67 69 70 70 69 68 68 66 68 63 62 64 69 67 68 68 66 63
63 64 67 69 69 69 66 64 64 64 63 64 64 66 61 61 68 69 68 68 62 61
Lifted_Index
-4 -4 -3 -3 -3 -3 -3 -3 -3 -3 -3 -2 -2 -2 -2 -3 -3 -3 -3 -3 -3 -3
-4 -4 -4 -3 -3 -3 -3 -3 -3 -3 -3 -2 -2 -2 -2 -3 -3 -3 -3 -3 -3 -3
-3 -4 -4 -4 -4 -3 -3 -3 -3 -3 -2 -2 -2 -2 -3 -3 -3 -3 -3 -3 -3 -3
-3 -4 -5 -5 -4 -4 -3 -3 -3 -3 -3 -3 -3 -3 -3 -3 -3 -3 -3 -3 -3 -3
-4 -5 -5 -5 -5 -4 -4 -3 -3 -3 -3 -3 -3 -3 -3 -3 -3 -3 -3 -3 -3 -3
-6 -6 -6 -6 -5 -5 -4 -3 -3 -3 -3 -3 -3 -3 -3 -3 -3 -4 -4 -3 -3 -3
-7 -7 -6 -6 -6 -5 -5 -4 -4 -3 -3 -3 -3 -3 -3 -3 -3 -4 -4 -4 -3 -3
-7 -7 -7 -6 -6 -6 -5 -5 -5 -4 -4 -4 -3 -3 -3 -3 -3 -4 -4 -4 -4 -4
-7 -7 -7 -6 -6 -6 -6 -5 -5 -5 -4 -4 -4 -4 -3 -3 -4 -4 -4 -4 -5 -5
-6 -6 -6 -6 -6 -6 -6 -6 -6 -5 -5 -4 -4 -4 -4 -4 -4 -4 -4 -5 -5 -5
-5 -5 -5 -5 -6 -6 -6 -6 -6 -6 -5 -5 -5 -4 -4 -4 -5 -5 -5 -5 -5 -5
-3 -4 -4 -4 -4 -4 -5 -6 -6 -6 -6 -5 -5 -5 -4 -4 -4 -5 -5 -5 -5 -5
-2 -2 -3 -3 -3 -3 -4 -4 -4 -4 -4 -4 -4 -4 -3 -4 -4 -4 -5 -5 -5 -5
-0 -1 -2 -3 -3 -2 -2 -2 -2 -1 -2 -2 -3 -3 -3 -3 -4 -5 -5 -5 -5 -5